THEMIS E

Last updated on Jan. 23, 2021, 7:12 a.m. UTC

1 30798U 07004E   21022.29352001 -.00000596  00000-0  00000-0 0  9998
2 30798  13.3130  24.3722 8364194  80.0815 354.8029  0.87841399 48582
UTC
Height (km)
Latitude
Longitude
Inclination
Orbital Period
UTC large
Height (km)
Speed (km/s)
/
Latitude / Longitude
Inclination (degrees)
Orbital Period (minutes)
Azimuth
Elevation
Range (km)
Doppler Factor
iOS Compass Heading
iOS Angle

Next 30 passes for location: Hong Kong

Rise time Rise Azimuth (degrees) Set time Set Azimuth (degrees) Duration Max altitude (degrees)

No matching passes for this satellites